{"data":{"norad_id":57936,"intl_designator":"2023-148B","name":"STARLINK-30716","alt_names":[],"object_type":"PAYLOAD","status":"ACTIVE","operator":null,"country":"US","launch_date":"2023-09-25","launch_site_code":"AFWTR","launch_vehicle":null,"mission":null,"orbit_class":"UNKNOWN","rcs_meters":null,"size_class":null,"mass_kg":null,"dimensions":null,"purposes":["comms"],"wikipedia_slug":null,"has_3d_model":false,"image_url":null,"decayed_at":null,"tle_current":{"epoch":"2026-09-20T12:27:35.909568Z","epoch_age_seconds":132801,"freshness":"FRESH","line1":"1 57936U 23148B   26263.51916562  .00000104  00000+0  14225-4 0  9994","line2":"2 57936  53.1611 197.6779 0001035  89.6830 270.4291 15.34395341168275","mean_motion":15.34395341,"eccentricity":0.0001035,"inclination_deg":53.1611,"raan_deg":197.6779,"arg_perigee_deg":89.683,"mean_anomaly_deg":270.4291,"bstar":1.4225e-5,"rev_number":16827,"period_min":93.848043038342,"perigee_km":462.0090593739,"apogee_km":463.42511617007,"semimajor_km":6840.854087772,"source":"CELESTRAK","updated_at":"2026-09-21T09:00:33.744203Z"}}}